Location: *
(1.3500°S, 147.5000°W)
Time: 21:24:04
(UTC+00:00)

ARIANE DEB (SPELDA) - Pass Details

Date: 07 April 2020
Orbit: 339 x 32759 km, 3.8° (Epoch: 02 June)

Event Time Altitude Azimuth Distance (km) Brightness Sun altitude
Rises 05:28:38 0° 274° (W) 20,029 11.6 -24.1°
Reaches altitude 10° 06:05:17 10° 276° (W) 10,214 9.5 -33.2°
Enters shadow 06:27:24 61° 318° (NW) 1,508 4.4 -38.7°
